Stations météo

réclame
Mon MeteoGroup
De Bilt, Pays-Bas (6260): Température de l'air & dewpoint: 06.07.2020 04:00:00 - 12.07.2020 04:00:00 (CEST)De Bilt, Pays-Bas (6260): Température de l'air 5cm & Température de l'air -5cm: 06.07.2020 04:00:00 - 12.07.2020 04:00:00 (CEST)De Bilt, Pays-Bas (6260): Température de l'air -20cm & Température de l'air -100cm: 06.07.2020 04:00:00 - 12.07.2020 04:00:00 (CEST)De Bilt, Pays-Bas (6260): Vitesse du vent & gusts: 06.07.2020 04:00:00 - 12.07.2020 04:00:00 (CEST)De Bilt, Pays-Bas (6260): Direction du vent: 06.07.2020 04:00:00 - 12.07.2020 04:00:00 (CEST)De Bilt, Pays-Bas (6260): reduced air pressure: 06.07.2020 04:00:00 - 12.07.2020 04:00:00 (CEST)De Bilt, Pays-Bas (6260): visibility: 06.07.2020 04:00:00 - 12.07.2020 04:00:00 (CEST)De Bilt, Pays-Bas (6260): Quantités de précipitations: 06.07.2020 04:00:00 - 12.07.2020 04:00:00 (CEST)
Date & Time tt [°C] td [°C] tt 5cm [°C] tt -5cm [°C] tt -20cm [°C] tt -100cm [°C] ff [km/h] ff [knt] fx [km/h] fx [knt] dd ppp [hPa] vv [km] rr [mm]
12.07.2020 04:00:00 7,7 7,6 5,3 16,0 16,8 15,3 0 0 4 2 N 1027,5 2,0 0,0
12.07.2020 03:00:00 7,9 7,6 5,8 16,4 16,9 15,3 4 2 7 4 WNW 1027,7 4,7 0,0
12.07.2020 02:00:00 8,5 8,1 6,2 16,8 17,0 15,3 4 2 4 2 WNW 1027,6 11 0,0
12.07.2020 01:00:00 9,4 9,1 7,2 17,3 17,1 15,3 4 2 7 4 NW 1027,5 24 0,0
12.07.2020 00:00:00 10,8 10,0 8,5 17,7 17,2 15,3 4 2 7 4 NW 1027,5 41 0,0
11.07.2020 23:00:00 11,9 10,5 10,1 18,0 17,2 15,3 4 2 7 4 NW 1027,3 43 0,0
11.07.2020 22:00:00 14,9 10,5 12,8 18,3 17,1 15,3 7 4 14 8 NNW 1026,7 50 0,0
11.07.2020 21:00:00 16,4 9,9 15,8 18,4 17,0 15,3 11 6 18 10 NW 1026,4 45 0,0
11.07.2020 20:00:00 17,6 9,7 18,6 18,4 16,9 15,3 11 6 22 12 NW 1026,1 40 0,0
11.07.2020 19:00:00 18,5 10,2 19,8 18,3 16,7 15,3 14 8 25 14 NW 1025,9 38 0,0
11.07.2020 18:00:00 18,2 9,1 19,2 18,2 16,6 15,3 14 8 29 16 WNW 1025,6 48 0,0
11.07.2020 17:00:00 18,6 8,8 20,0 18,0 16,4 15,3 14 8 29 16 NW 1025,4 41 0,0
11.07.2020 16:00:00 19,3 9,7 20,3 17,6 16,2 15,3 14 8 29 16 NNW 1025,0 31 0,0
11.07.2020 15:00:00 18,5 7,9 18,6 17,2 16,1 15,3 14 8 25 14 WNW 1024,9 46 0,0
11.07.2020 14:00:00 19,2 10,5 19,3 16,7 16,0 15,3 11 6 22 12 NW 1024,5 46 0,0
11.07.2020 13:00:00 17,5 10,5 16,8 16,3 15,9 15,3 7 4 22 12 NNW 1024,4 46 0,0
11.07.2020 12:00:00 16,8 10,1 17,4 15,9 15,8 15,3 14 8 29 16 W 1024,3 40 0,0
11.07.2020 11:00:00 17,2 9,7 17,9 15,3 15,8 15,3 7 4 18 10 SW 1023,9 37 0,0
11.07.2020 10:00:00 16,9 10,9 17,2 14,9 15,9 15,3 11 6 18 10 SW 1023,7 36 0,0
11.07.2020 09:00:00 15,3 10,5 15,1 14,7 16,0 15,3 7 4 11 6 SSW 1023,5 43 0,0
11.07.2020 08:00:00 13,5 11,5 13,1 14,7 16,2 15,3 4 2 7 4 SSE 1023,0 28 0,0
11.07.2020 07:00:00 9,7 9,4 8,1 14,9 16,3 15,3 4 2 4 2 SSE 1022,8 12 0,0
11.07.2020 06:00:00 6,9 6,9 4,9 15,2 16,5 15,3 0 0 4 2 N 1022,4 0,6 0,0
11.07.2020 05:00:00 6,8 6,7 5,3 15,6 16,6 15,3 0 0 0 0 N 1022,0 0,3 0,0
11.07.2020 04:00:00 7,1 7,0 5,5 15,9 16,8 15,3 0 0 4 2 N 1021,8 0,4 0,0
11.07.2020 03:00:00 7,7 7,6 6,0 16,3 16,9 15,3 0 0 4 2 N 1021,7 0,2 0,0
11.07.2020 02:00:00 8,3 7,9 6,6 16,7 17,0 15,3 0 0 4 2 N 1021,5 3,1 0,0
11.07.2020 01:00:00 8,9 8,6 7,5 17,1 17,1 15,3 4 2 4 2 W 1021,0 9 0,0
11.07.2020 00:00:00 10,0 9,2 8,4 17,5 17,1 15,3 4 2 7 4 WNW 1020,6 37 0,0
10.07.2020 23:00:00 11,5 9,7 10,0 17,8 17,1 15,3 4 2 7 4 WNW 1020,0 50 0,0
10.07.2020 22:00:00 14,4 9,0 12,7 18,0 17,1 15,3 7 4 11 6 NW 1019,4 50 0,0
10.07.2020 21:00:00 15,6 8,8 15,6 18,1 17,0 15,3 11 6 18 10 WNW 1018,8 41 0,0
10.07.2020 20:00:00 16,9 9,0 17,8 18,0 16,9 15,3 11 6 22 12 NW 1018,4 45 0,0
10.07.2020 19:00:00 17,3 8,0 18,9 17,8 16,8 15,3 14 8 29 16 NW 1017,9 39 0,0
10.07.2020 18:00:00 17,3 9,9 17,9 17,7 16,7 15,3 11 6 25 14 WNW 1017,5 39 0,0
10.07.2020 17:00:00 16,5 10,0 16,9 17,5 16,7 15,3 11 6 22 12 N 1017,0 38 0,0
10.07.2020 16:00:00 15,9 10,7 15,8 17,3 16,6 15,3 11 6 25 14 N 1016,5 42 0,0
10.07.2020 15:00:00 15,0 10,8 14,8 17,1 16,5 15,3 11 6 18 10 NNW 1015,7 25 0,0
10.07.2020 14:00:00 16,2 11,1 16,9 16,9 16,5 15,3 11 6 22 12 NNW 1014,9 36 0,0
10.07.2020 13:00:00 16,1 10,6 17,3 16,6 16,5 15,3 18 10 32 18 NNW 1014,1 38 0,0
10.07.2020 12:00:00 14,5 11,6 14,5 16,6 16,5 15,3 12 6 - - NNW 1013,2 45 -
10.07.2020 11:00:00 13,6 12,3 13,7 16,6 16,5 15,3 14 8 36 19 NNW 1012,1 34 0,1
10.07.2020 10:00:00 15,1 12,5 14,9 16,6 16,6 15,3 18 10 25 14 N 1010,5 43 0,0
10.07.2020 09:00:00 14,2 12,7 14,0 16,7 16,6 15,3 14 8 29 16 NNW 1009,3 49 0,0
10.07.2020 08:00:00 14,1 13,1 14,0 16,8 16,6 15,3 14 8 29 16 NNW 1008,5 50 0,0
10.07.2020 07:00:00 14,5 14,2 14,6 16,8 16,6 15,3 11 6 25 14 NNW 1007,6 10 1,6
10.07.2020 06:00:00 16,0 15,5 15,7 16,9 16,7 15,3 14 8 29 16 SW 1006,9 4,4 0,7
10.07.2020 05:00:00 16,0 15,3 15,8 16,9 16,7 15,3 14 8 25 14 SW 1007,2 2,3 0,0
10.07.2020 04:00:00 16,6 15,3 16,1 17,0 16,7 15,3 11 6 22 12 SW 1007,7 12 0,0
10.07.2020 03:00:00 16,7 15,2 16,1 17,1 16,8 15,3 14 8 25 14 SW 1008,3 18 0,0
10.07.2020 02:00:00 16,7 15,3 16,1 17,2 16,8 15,3 11 6 18 10 SW 1008,8 18 0,0
10.07.2020 01:00:00 16,6 15,4 16,0 17,3 16,8 15,3 11 6 18 10 SW 1009,2 17 0,0
10.07.2020 00:00:00 16,9 15,4 16,2 17,4 16,8 15,3 14 8 22 12 SW 1009,6 27 0,0
09.07.2020 23:00:00 16,7 15,8 15,9 17,4 16,8 15,3 11 6 18 10 SSW 1010,1 16 0,0
09.07.2020 22:00:00 16,8 16,2 16,5 17,5 16,8 15,3 7 4 14 8 SW 1010,4 7 0,0
09.07.2020 21:00:00 16,9 16,1 16,6 17,5 16,8 15,3 14 8 29 16 WSW 1010,8 10 0,2
09.07.2020 20:00:00 17,0 16,2 16,9 17,5 16,7 15,3 14 8 25 14 SW 1011,3 4,9 0,3
09.07.2020 19:00:00 17,3 15,8 17,1 17,5 16,7 15,3 14 8 25 14 WSW 1011,4 8 0,1
09.07.2020 18:00:00 17,2 15,8 17,1 17,4 16,7 15,3 14 8 29 16 WSW 1011,8 3,4 0,1
09.07.2020 17:00:00 17,6 15,5 17,1 17,4 16,7 15,3 18 10 29 16 WSW 1012,0 17 0,0
09.07.2020 16:00:00 17,0 15,7 16,7 17,4 16,6 15,3 14 8 29 16 WSW 1012,1 6 0,0
09.07.2020 15:00:00 16,9 15,5 16,7 17,3 16,6 15,3 18 10 32 18 WSW 1012,3 7 0,0
09.07.2020 14:00:00 17,0 15,4 16,8 17,2 16,5 15,3 18 10 32 18 WSW 1012,2 9 0,0
09.07.2020 13:00:00 17,0 15,8 17,1 17,0 16,5 15,3 22 12 36 19 WSW 1011,9 11 0,3
09.07.2020 12:00:00 17,5 16,6 17,5 16,8 16,5 15,3 22 12 40 21 SW 1011,8 7 0,6
09.07.2020 11:00:00 16,8 15,8 16,7 16,7 16,5 15,3 22 12 36 19 WSW 1011,8 6 0,0
09.07.2020 10:00:00 16,8 16,1 16,5 16,7 16,5 15,3 14 8 36 19 SW 1012,0 7 0,7
09.07.2020 09:00:00 16,6 15,8 16,4 16,7 16,6 15,3 18 10 36 19 SW 1011,9 6 0,0
09.07.2020 08:00:00 16,5 15,8 16,3 16,7 16,6 15,3 18 10 36 19 SW 1012,0 4,5 0,0
09.07.2020 07:00:00 16,5 15,8 16,2 16,7 16,6 15,3 18 10 32 18 SW 1011,8 8 0,1
09.07.2020 06:00:00 16,5 15,7 16,0 16,7 16,7 15,3 18 10 32 18 SW 1012,1 8 1,2
09.07.2020 05:00:00 15,9 15,6 15,7 16,8 16,7 15,3 7 4 14 8 S 1012,4 2,9 2,5
09.07.2020 04:00:00 15,5 15,1 15,3 16,9 16,7 15,3 7 4 14 8 S 1012,8 2,0 0,5
09.07.2020 03:00:00 14,9 14,6 14,8 17,0 16,8 15,3 7 4 11 6 SE 1013,6 2,2 0,5
09.07.2020 02:00:00 14,7 14,2 14,7 17,1 16,8 15,3 4 2 7 4 ESE 1014,2 4,0 0,0
09.07.2020 01:00:00 14,5 14,1 14,6 17,2 16,8 15,3 4 2 7 4 ESE 1014,6 5 0,1
09.07.2020 00:00:00 14,6 14,1 14,7 17,3 16,8 15,3 4 2 4 2 E 1015,2 7 0,1
08.07.2020 23:00:00 14,6 14,1 14,6 17,4 16,8 15,3 4 2 4 2 NE 1015,6 12 0,0
08.07.2020 22:00:00 14,5 13,9 14,5 17,5 16,8 15,3 4 2 7 4 ENE 1015,2 18 0,0
08.07.2020 21:00:00 14,9 14,0 15,1 17,5 16,8 15,3 7 4 11 6 NE 1015,1 25 0,0
08.07.2020 20:00:00 15,3 14,5 15,7 17,5 16,7 15,3 7 4 11 6 NNE 1015,3 24 0,0
08.07.2020 19:00:00 15,4 14,4 16,1 17,5 16,6 15,3 7 4 14 8 N 1015,3 25 1,1
08.07.2020 18:00:00 15,7 14,9 16,3 17,5 16,6 15,3 7 4 14 8 NE 1015,1 18 0,8
08.07.2020 17:00:00 15,7 14,5 16,8 17,3 16,5 15,3 7 4 - - NNE 1015,4 25 0,0
08.07.2020 16:00:00 16,7 15,2 17,2 17,0 16,5 15,3 7 4 14 8 SSW 1015,4 10 0,0
08.07.2020 15:00:00 16,0 14,7 16,7 16,9 16,4 15,3 7 4 11 6 S 1015,3 5 0,0
08.07.2020 14:00:00 15,2 14,2 15,9 16,7 16,4 15,3 11 6 14 8 S 1015,2 5 0,1
08.07.2020 13:00:00 15,4 13,9 16,0 16,5 16,4 15,3 7 4 14 8 SSW 1015,1 15 0,3
08.07.2020 12:00:00 14,7 13,5 15,1 16,4 16,4 15,3 7 4 14 8 S 1015,1 11 0,0
08.07.2020 11:00:00 14,7 13,6 14,8 16,4 16,5 15,3 11 6 22 12 SSW 1014,9 13 0,5
08.07.2020 10:00:00 14,1 13,3 14,1 16,4 16,5 15,3 7 4 11 6 SSW 1014,8 7 0,6
08.07.2020 09:00:00 13,7 12,7 13,8 16,4 16,6 15,3 11 6 14 8 SW 1014,7 4,3 0,1
08.07.2020 08:00:00 13,8 13,0 13,6 16,5 16,7 15,3 7 4 14 8 SW 1014,5 14 0,0
08.07.2020 07:00:00 13,6 13,0 13,3 16,6 16,7 15,3 7 4 18 10 SSW 1014,3 8 0,0
08.07.2020 06:00:00 13,3 12,4 12,9 16,7 16,8 15,4 7 4 11 6 SW 1014,8 10 0,2
08.07.2020 05:00:00 13,2 12,3 12,8 16,8 16,9 15,4 7 4 14 8 SW 1014,8 11 0,6
08.07.2020 04:00:00 13,0 12,4 12,9 17,0 16,9 15,4 4 2 7 4 SSW 1015,4 9 0,3
08.07.2020 03:00:00 12,9 12,3 12,9 17,2 17,0 15,4 4 2 7 4 SSE 1015,9 11 0,2
08.07.2020 02:00:00 13,2 12,4 13,2 17,4 17,0 15,4 0 0 4 2 N 1016,4 10 0,1
08.07.2020 01:00:00 13,2 12,1 13,1 17,6 17,1 15,4 4 2 4 2 ESE 1016,6 25 0,0
08.07.2020 00:00:00 13,8 12,2 13,2 17,8 17,1 15,4 4 2 7 4 NE 1017,2 31 0,0
07.07.2020 23:00:00 13,8 12,5 13,4 18,0 17,1 15,4 4 2 7 4 WNW 1017,5 22 0,0
07.07.2020 22:00:00 14,2 12,0 13,6 18,2 17,1 15,4 4 2 11 6 WNW 1017,5 31 0,1
07.07.2020 21:00:00 15,0 10,6 14,3 18,4 17,0 15,4 7 4 18 10 WNW 1017,9 29 0,0
07.07.2020 20:00:00 15,6 10,9 15,1 18,6 16,9 15,4 7 4 14 8 NW 1018,0 43 0,0
07.07.2020 19:00:00 17,1 9,9 16,6 18,6 16,7 15,4 11 6 18 10 WNW 1018,2 41 0,0
07.07.2020 18:00:00 17,8 10,0 18,1 18,4 16,6 15,4 11 6 25 14 WNW 1018,6 40 0,0
07.07.2020 17:00:00 18,5 9,0 19,9 18,1 16,4 15,4 14 8 32 18 WNW 1019,0 39 0,0
07.07.2020 16:00:00 18,4 8,5 19,7 17,7 16,2 15,4 14 8 36 19 W 1019,2 39 0,0
07.07.2020 15:00:00 18,7 8,7 20,1 17,2 16,1 15,4 18 10 36 19 W 1019,4 35 0,0
07.07.2020 14:00:00 19,0 9,4 19,9 16,7 16,0 15,4 14 8 36 19 WNW 1019,5 37 0,0
07.07.2020 13:00:00 17,8 9,0 18,9 16,2 15,9 15,4 22 12 32 18 W 1019,6 36 0,0
07.07.2020 12:00:00 17,5 9,1 18,3 15,8 15,9 15,4 18 10 32 18 W 1019,7 24 0,0
07.07.2020 11:00:00 17,2 10,5 17,7 15,4 15,9 15,4 18 10 32 18 W 1019,5 29 0,1
07.07.2020 10:00:00 16,1 12,0 16,5 15,0 15,9 15,4 14 8 22 12 SSW 1019,5 23 0,0
07.07.2020 09:00:00 14,2 11,3 14,3 14,9 16,0 15,4 14 8 18 10 S 1019,8 29 0,0
07.07.2020 08:00:00 12,2 11,1 12,0 14,9 16,2 15,4 7 4 11 6 SSE 1020,0 17 0,0
07.07.2020 07:00:00 11,0 10,3 10,4 15,0 16,3 15,4 4 2 7 4 SSE 1020,3 16 0,0
07.07.2020 06:00:00 9,8 9,8 8,4 15,3 16,4 15,4 4 2 4 2 SSE 1020,4 10 0,0
07.07.2020 05:00:00 8,8 8,4 6,7 15,6 16,6 15,4 4 2 4 2 SSW 1020,8 1,2 0,0
07.07.2020 04:00:00 8,3 8,3 5,9 15,9 16,7 15,4 4 2 7 4 SSW 1021,2 0,5 0,0
07.07.2020 03:00:00 8,5 8,2 6,1 16,3 16,8 15,4 4 2 7 4 WSW 1021,6 2,9 0,0
07.07.2020 02:00:00 10,1 8,9 7,2 16,7 16,9 15,4 7 4 11 6 WSW 1021,7 22 0,0
07.07.2020 01:00:00 11,2 9,3 9,2 17,0 17,0 15,4 4 2 11 6 W 1021,8 27 0,0
07.07.2020 00:00:00 12,6 9,6 10,5 17,3 17,1 15,4 7 4 14 8 W 1021,8 25 0,0
06.07.2020 23:00:00 12,9 9,7 11,1 17,6 17,1 15,4 7 4 14 8 W 1021,3 29 0,0
06.07.2020 22:00:00 14,0 9,5 12,4 17,9 17,1 15,4 7 4 18 10 W 1020,9 28 0,0
06.07.2020 21:00:00 15,4 9,2 15,3 18,1 17,0 15,4 14 8 25 14 WNW 1020,4 37 0,0
06.07.2020 20:00:00 15,6 9,3 15,4 18,2 17,0 15,4 14 8 29 16 NW 1019,8 43 0,0
06.07.2020 19:00:00 16,2 9,4 16,3 18,2 16,9 15,4 18 10 36 19 WNW 1019,4 33 0,0
06.07.2020 18:00:00 16,1 10,4 15,9 18,1 16,7 15,4 22 12 40 21 W 1019,0 38 0,0
06.07.2020 17:00:00 15,6 10,4 16,3 17,9 16,6 15,4 22 12 47 25 W 1018,4 28 0,0
06.07.2020 16:00:00 16,3 9,6 16,6 17,6 16,5 15,4 25 14 43 23 W 1017,7 25 0,0
06.07.2020 15:00:00 16,3 11,0 15,7 17,2 16,4 15,4 18 10 36 19 W 1016,8 28 1,4
06.07.2020 14:00:00 18,2 9,7 20,4 16,7 16,3 15,4 22 12 43 23 W 1016,0 31 0,0
06.07.2020 13:00:00 17,2 10,0 17,4 16,3 16,3 15,4 18 10 40 21 W 1015,4 36 0,0
06.07.2020 12:00:00 16,2 9,9 15,7 16,1 16,3 15,4 18 10 47 25 W 1014,8 26 0,0
06.07.2020 11:00:00 14,8 11,2 14,9 15,9 16,4 15,4 22 12 43 23 W 1014,0 23 2,3
06.07.2020 10:00:00 14,3 11,1 14,3 15,9 16,5 15,4 14 8 47 25 W 1013,4 21 2,6
06.07.2020 09:00:00 14,5 9,2 14,4 15,9 16,6 15,4 22 12 43 23 W 1012,9 17 0,0
06.07.2020 08:00:00 15,2 8,7 14,3 15,9 16,7 15,4 22 12 40 21 W 1012,2 25 0,0
06.07.2020 07:00:00 14,7 8,9 13,8 16,1 16,8 15,4 18 10 36 19 W 1011,6 22 0,0
06.07.2020 06:00:00 14,6 8,5 13,3 16,3 16,9 15,4 18 10 36 19 W 1011,2 17 0,0
06.07.2020 05:00:00 14,6 9,1 13,3 16,6 17,0 15,4 14 8 29 16 WSW 1010,8 16 0,0
06.07.2020 04:00:00 14,7 8,5 13,3 16,9 17,1 15,4 14 8 36 19 WSW 1010,7 18 0,0

tt = Température de l'air
td = dewpoint
tt 5cm = Température de l'air 5cm
tt -5cm = Température de l'air -5cm
tt -20cm = Température de l'air -20cm
tt -100cm = Température de l'air -100cm
ff = Vitesse du vent
fx = gusts
dd = Direction du vent
ppp = reduced air pressure
vv = visibility
rr = Quantités de précipitations

stations d'obs. à proximité